Weather Roundup
Issued by NWS Springfield, MO

Home | Current Version | Previous Version | Text Only | Print | Product List | Glossary On
Versions: 1 2 3 4 5 6 7 8 9 10 11 12 13 14 15 16 17 18 19 20 21 22 23 24 25 26 27 28 29 30 31 32 33 34 35 36 37 38 39 40 41 42 43 44 45 46 47 48 49 50
000
NZUS99 KSGF 170407
HRRSGF

HOURLY WEATHER
NATIONAL WEATHER SERVICE SPRINGFIELD MO
1100 PM CDT WED APR 16 2014

......SGF CWA......

CITY           SKY/WX    TMP DP  RH WIND       PRES   REMARKS
SPRINGFIELD    CLEAR     50  29  44 S14       30.06S
JOPLIN         CLEAR     52  30  43 S12       30.04R
WEST PLAINS    CLEAR     44  29  55 CALM      30.14R
ROLLA          CLEAR     47  28  47 S16G22    30.08S
OSAGE BEACH    CLEAR     50  27  40 S13       30.07S
BRANSON        CLOUDY    46  30  53 SE8       30.12R

......SURROUNDING SGF CWA......

CITY           SKY/WX    TMP DP  RH WIND       PRES   REMARKS
CHANUTE        PTCLDY    53  34  48 S13       30.00R
PARSONS        PTCLDY    55  32  41 S10       30.02R
COFFEYVILLE    CLEAR     52  34  50 S10       30.02R
EMPORIA        CLEAR     49  35  58 N17G24    30.06R
GROVE OK       CLEAR     50  34  53 SE5       30.07R
ROGERS AR      CLEAR     50  30  46 SE10      30.10R
SILOAM SPRINGS CLEAR     48  28  46 S7        30.11R
HARRISON AR    CLEAR     44  30  57 E3        30.12R
NEAR YELLVILLE CLEAR     48  25  40 CALM      30.13R

......KANSAS AND MISSOURI......

CITY           SKY/WX    TMP DP  RH WIND       PRES   REMARKS
KANSAS CTY INT CLOUDY    48  32  53 NW20      30.04R
DOWNTOWN KC    PTCLDY    55  36  48 NW15      30.01R
COLUMBIA       CLEAR     50  28  42 S17       30.04R
SEDALIA        CLEAR     53  30  41 S15       30.01R
ST JOSEPH      PTCLDY    43  32  65 NW17      30.07R
ST LOUIS       PTCLDY    51  27  39 S9        30.14S
SPIRIT OF STL  CLEAR     49  25  39 S7        30.12S
KIRKSVILLE     MOCLDY    46  31  55 S10       29.98R
WICHITA        PTCLDY    55  36  48 N18G24    30.04R
TOPEKA         CLOUDY    48  33  56 NW8       30.08R
OLATHE         PTCLDY    55  32  41 SW7       30.01R

......TENNESSEE......

CITY           SKY/WX    TMP DP  RH WIND       PRES   REMARKS
MEMPHIS        PTCLDY    50  34  54 CALM      30.16R
NASHVILLE      PTCLDY    47  35  63 S3        30.22R

......ARKANSAS.......

CITY           SKY/WX    TMP DP  RH WIND       PRES   REMARKS
FAYETTEVILLE   CLEAR     40  33  76 CALM      30.11R
FT SMITH       CLEAR     53  33  46 CALM      30.11R
LITTLE ROCK    PTCLDY    49  37  63 SE6       30.15R

......OKLAHOMA.......

CITY           SKY/WX    TMP DP  RH WIND       PRES   REMARKS
TULSA          PTCLDY    56  34  43 S12       30.03R
PONCA CITY     PTCLDY    58  32  37 S10G18    29.99R
MCALESTER      CLEAR     49  34  56 E5        30.08R
OKLAHOMA CITY  PTCLDY    55  35  47 SE15      30.00R

......IOWA............

CITY           SKY/WX    TMP DP  RH WIND       PRES   REMARKS
DES MOINES     CLOUDY    45  37  73 W18G28    29.93R
QUAD CITIES    MOCLDY    48  27  44 SE18G25   30.01F

......ILLINOIS........

CITY           SKY/WX    TMP DP  RH WIND       PRES   REMARKS
QUINCY         PTCLDY    48  27  44 S14       30.03S
CHICAGO        MOCLDY    45  23  42 S14       30.16R




USA.gov is the U.S. government's official web portal to all federal, state and local government web resources and services.